Photometre #849[NE_1.6_Dp] Portglenone_MO AOT

File : 20220922_849.hum

22/09/2022,07:12:29,TEMP=17.2,BA=5.64,STAT.h
22/09/2022,07:16:59,TEMP=17.2,BA=5.64,STAT.h
22/09/2022,07:22:17,TEMP=17.2,BA=5.64,STAT.h
22/09/2022,07:28:34,TEMP=17.2,BA=5.64,STAT.h
22/09/2022,07:36:12,TEMP=17.2,BA=5.64,STAT.h
22/09/2022,07:45:39,TEMP=17.2,BA=5.64,STAT.h
22/09/2022,07:57:41,TEMP=17.2,BA=5.64,STAT.h
22/09/2022,08:03:29,TEMP=17.2,BA=5.64,STAT.h
22/09/2022,08:10:01,TEMP=17.2,BA=5.64,STAT.h
22/09/2022,08:17:26,TEMP=17.2,BA=5.64,STAT.h
22/09/2022,08:25:56,TEMP=17.2,BA=5.64,STAT.h
22/09/2022,08:35:49,TEMP=17.2,BA=5.64,STAT.h
22/09/2022,08:47:30,TEMP=17.2,BA=5.64,STAT.h
22/09/2022,09:01:33,TEMP=17.2,BA=5.64,STAT.h
22/09/2022,09:18:55,TEMP=17.2,BA=5.64,STAT.h
22/09/2022,09:33:55,TEMP=17.2,BA=5.64,STAT.h
22/09/2022,09:48:55,TEMP=17.2,BA=5.64,STAT.h
22/09/2022,10:03:55,TEMP=17.2,BA=5.64,STAT.h
22/09/2022,10:18:55,TEMP=17.2,BA=5.64,STAT.h
22/09/2022,10:33:55,TEMP=17.2,BA=5.64,STAT.h
22/09/2022,10:48:55,TEMP=17.2,BA=5.64,STAT.h
22/09/2022,11:04:19,TEMP=16.3,BA=5.64,STAT.D,ExtBa=12.30
22/09/2022,11:19:20,TEMP=17.7,BA=5.64,STAT.F,ExtBa=12.20
22/09/2022,11:34:20,TEMP=18.9,BA=5.56,STAT.D,ExtBa=12.10
22/09/2022,11:49:19,TEMP=18.2,BA=5.64,STAT.D,ExtBa=12.20
22/09/2022,12:04:19,TEMP=17.4,BA=5.64,STAT.D,ExtBa=12.20
22/09/2022,12:19:21,TEMP=17.3,BA=5.64,STAT.F,ExtBa=12.20
22/09/2022,12:34:19,TEMP=17.8,BA=5.64,STAT.D,ExtBa=12.20
22/09/2022,12:49:19,TEMP=17.8,BA=5.64,STAT.D,ExtBa=12.20
22/09/2022,13:04:19,TEMP=18.4,BA=5.64,STAT.D,ExtBa=12.20
22/09/2022,13:19:20,TEMP=19.6,BA=5.64,STAT.F,ExtBa=12.20
22/09/2022,13:56:53,TEMP=20.9,BA=5.52,STAT.D,ExtBa=12.10
22/09/2022,13:58:56,TEMP=20.8,BA=5.52,STAT.D,ExtBa=12.10
22/09/2022,14:04:19,TEMP=20.3,BA=5.52,STAT.D,ExtBa=12.10
22/09/2022,14:19:20,TEMP=20.9,BA=5.64,STAT.F,ExtBa=12.20
22/09/2022,14:55:09,TEMP=20.8,BA=5.52,STAT.D,ExtBa=12.10
22/09/2022,14:57:06,TEMP=20.7,BA=5.52,STAT.D,ExtBa=12.10
22/09/2022,15:04:18,TEMP=19.9,BA=5.64,STAT.D,ExtBa=12.10
22/09/2022,15:19:21,TEMP=20.1,BA=5.64,STAT.F,ExtBa=12.10
22/09/2022,15:36:42,TEMP=18.9,BA=5.64,STAT.A,ExtBa=12.10
22/09/2022,15:50:45,TEMP=18.3,BA=5.64,STAT.A,ExtBa=12.10
22/09/2022,16:02:26,TEMP=17.8,BA=5.64,STAT.C,ExtBa=12.10
22/09/2022,16:12:19,TEMP=17.4,BA=5.64,STAT.A,ExtBa=12.20
22/09/2022,16:20:49,TEMP=17.9,BA=5.64,STAT.A,ExtBa=12.10
22/09/2022,16:28:14,TEMP=18.0,BA=5.64,STAT.A,ExtBa=12.10
22/09/2022,16:34:46,TEMP=18.0,BA=5.60,STAT.A,ExtBa=12.10
22/09/2022,16:40:34,TEMP=17.6,BA=5.64,STAT.B,ExtBa=12.10
22/09/2022,16:52:36,TEMP=16.6,BA=5.64,STAT.A,ExtBa=12.20
22/09/2022,17:02:02,TEMP=16.1,BA=5.64,STAT.A,ExtBa=12.10
22/09/2022,17:09:40,TEMP=15.9,BA=5.64,STAT.A,ExtBa=12.10
22/09/2022,17:15:57,TEMP=15.8,BA=5.56,STAT.A,ExtBa=12.10
22/09/2022,17:21:15,TEMP=15.7,BA=5.64,STAT.A,ExtBa=12.10
22/09/2022,17:29:15,TEMP=15.4,BA=5.64,STAT.A,ExtBa=12.20